Flag for Germany Weather past 2 weeks in Bornheim (Rheinland), North Rhine-Westphalia, Germany

Now
53 °F

Cool.


Feels Like: 53 °F
Forecast: 49 / 64 °F
Wind: 1 mph from Northwest

Location: Bonn-Hangelar

Current Time: May 28, 2015 at 10:54:16 PM

Latest Report: May 28, 2015 at 10:00 PM


Visibility: 11 mi

Pressure: 29.98 "Hg

Humidity: 82%

Dew point: 48 °F

Location of Bornheim (Rheinland)Location

Historic Weather in Bornheim (Rheinland) — Graph

°F

Bornheim (Rheinland) temperature yesterday

Maximum temperature yesterday: 62 °F (at 5:00 PM)
Minimum temperature yesterday: 46 °F (at 5:00 AM)
Average temperature yesterday: 54 °F

Past Weeks' High & Low Weather Summary

 TemperatureHumidityPressure
High66 °F (May 23, 3:00 PM)100% (May 15, 6:00 AM)30.37 "Hg (May 15, 6:00 AM)
Low39 °F (May 21, 5:00 AM)44% (May 22, 4:00 PM)29.67 "Hg (May 18, 8:00 PM)
Average53 °F75%30.08 "Hg
* Reported May 13 10:00 PM — May 28 10:00 PM, Bornheim (Rheinland), Weather by CustomWeather, © 2015

Note: Actual official high and low records may vary slightly from our data, if they occured in-between our weather recording intervals... More about our weather records

Advertising

Bornheim (Rheinland) weather history for previous 24 hours

 ConditionsComfort  
Time TempWeatherWind HumidityBarometerVisibility
10:00 PM
Thu, May 28
53 °FCool.1 mph82%29.98 "Hg11 mi
9:00 PM55 °FOvercast.2 mph79%29.96 "Hg14 mi
8:00 PM56 °FOvercast.5 mph75%29.95 "Hg16 mi
7:00 PM59 °FOvercast.9 mph59%29.94 "Hg13 mi
6:00 PM60 °FOvercast.9 mph63%29.94 "Hg6 mi
5:00 PM60 °FPartly sunny.10 mph68%29.94 "Hg25 mi
4:00 PM58 °FOvercast.8 mph71%29.96 "Hg25 mi
3:00 PM58 °FOvercast.8 mph73%29.96 "Hg25 mi
2:00 PM58 °FOvercast.9 mph75%29.96 "Hg25 mi
1:00 PM58 °FOvercast.9 mph65%29.97 "Hg25 mi
12:00 PM58 °FOvercast.8 mph63%29.96 "Hg25 mi
11:00 AM58 °FPartly sunny.7 mph70%29.96 "Hg19 mi
10:00 AM58 °FOvercast.8 mph72%29.98 "Hg19 mi
9:00 AM55 °FOvercast.7 mph74%29.99 "Hg16 mi
8:00 AM54 °FOvercast.7 mph73%29.99 "Hg16 mi
7:00 AM54 °FOvercast.9 mph70%29.99 "Hg16 mi
6:00 AM54 °FOvercast.7 mph68%29.99 "Hg16 mi
5:00 AM55 °FOvercast.8 mph65%29.99 "Hg17 mi
4:00 AM55 °FOvercast.8 mph64%30.01 "Hg18 mi
3:00 AM54 °FOvercast.5 mph67%30.03 "Hg15 mi
2:00 AM54 °FOvercast.6 mph68%30.05 "Hg16 mi
1:00 AM55 °FOvercast.5 mph67%30.06 "Hg16 mi
12:00 AM54 °FOvercast.5 mph66%30.08 "Hg16 mi
11:00 PM
Wed, May 27
56 °FOvercast.5 mph62%30.09 "Hg16 mi
10:00 PM58 °FOvercast.5 mph57%30.11 "Hg17 mi
Weather by CustomWeather, © 2015

See weather overviewHow to use our weather pages